Wetbulb
56.34 56.13 56.07 56.09 56.18 55.84 55.68 55.80 55.90 55.99 56.08 56.19 56.24 56.28 56.45 56.90 57.05 53.09 47.88 53.51 56.63 65.47 66.72 64.55 63.32 61.04 59.12 56.04 57.87 56.48 46.25 44.28 45.97 47.71 49.51 54.18 49.57 53.96 55.27 53.37 54.09 54.44 54.71 57.71 59.30
56.14 56.17 56.28 56.29 56.63 56.37 55.75 55.53 55.49 55.70 55.95 56.00 56.02 55.93 56.11 56.82 52.88 49.29 56.55 62.71 63.65 66.75 60.55 59.80 57.47 59.06 53.83 54.70 55.50 52.21 46.29 49.26 53.35 52.21 50.42 53.58 51.72 53.15 51.56 51.62 52.45 55.15 57.69 58.80 58.81
54.88 55.26 55.87 56.38 56.25 56.39 56.20 56.00 55.43 55.42 55.82 55.50 55.68 55.75 56.10 55.95 49.42 49.53 64.00 62.90 64.10 66.22 56.76 58.84 59.96 57.08 52.09 53.53 53.91 52.21 49.60 53.60 54.31 55.03 54.64 53.68 53.81 54.68 51.08 49.25 51.40 52.15 55.71 57.03 56.54
54.02 54.04 54.23 54.57 55.22 55.99 56.53 55.90 55.47 55.59 55.28 55.06 55.14 55.54 56.18 53.09 37.00 49.94 67.58 67.93 66.45 63.04 57.33 53.43 52.05 51.96 50.66 50.71 55.06 49.28 54.42 55.22 55.42 56.21 54.49 53.18 55.23 53.74 52.11 51.77 54.05 55.38 57.44 56.46 55.27
52.99 53.74 53.65 53.63 53.90 54.75 56.03 56.14 55.61 55.34 55.14 55.18 55.33 55.64 51.80 47.58 44.97 51.66 66.24 66.74 65.20 59.99 55.75 52.05 49.25 49.22 47.92 52.19 53.34 51.70 53.85 55.45 55.93 55.18 54.80 55.41 53.45 53.00 52.13 54.91 55.54 55.69 56.15 55.82 55.44
51.65 51.62 52.45 53.36 53.25 53.59 54.74 54.98 55.53 55.49 55.35 55.23 55.52 55.78 49.42 37.75 50.20 53.06 53.28 52.52 56.46 57.17 55.09 51.95 50.04 50.79 46.91 49.76 50.05 53.83 54.34 54.45 55.23 54.77 55.12 53.63 53.85 52.27 53.70 55.56 54.67 53.65 53.91 54.20 53.82
53.12 52.31 51.48 51.59 52.65 53.78 53.96 53.87 53.98 55.10 54.95 55.09 56.10 53.71 47.05 42.70 50.71 52.48 50.35 49.59 54.72 56.18 52.63 54.38 53.43 50.27 48.36 46.29 50.12 51.10 49.54 52.57 53.22 52.24 51.42 53.31 49.95 50.44 53.95 54.36 53.05 52.22 52.21 53.53 54.24
53.96 53.50 52.82 51.95 51.44 52.54 53.61 54.00 53.83 53.89 54.12 54.75 56.20 51.75 43.07 51.02 51.57 48.94 49.06 48.37 51.19 52.23 54.28 54.16 54.42 50.05 46.95 48.18 48.32 45.73 44.22 41.64 48.57 50.75 52.06 50.12 45.95 51.91 53.87 52.88 52.49 52.88 52.34 52.59 52.49
53.94 53.85 53.38 53.03 52.24 51.40 52.58 53.26 53.18 53.35 53.75 54.29 51.23 48.41 39.57 52.16 48.17 49.63 51.63 48.77 49.89 52.02 53.70 56.39 51.14 47.57 47.04 44.45 41.50 42.37 40.03 42.11 44.95 50.75 51.12 49.47 47.61 52.42 54.25 52.74 52.23 52.16 52.59 53.39 53.05
53.36 53.40 53.65 53.36 52.80 52.05 51.68 52.23 52.28 51.82 51.49 52.50 52.27 44.38 45.41 43.80 48.71 50.87 49.41 51.59 49.06 49.74 49.52 51.22 48.76 43.55 42.18 40.13 36.19 40.03 39.97 43.04 44.12 48.81 49.52 48.27 48.02 51.51 53.14 52.91 52.31 51.80 52.63 53.01 52.36
52.50 52.84 53.07 53.65 53.17 52.41 49.42 45.47 43.64 45.90 46.98 43.91 43.55 42.60 48.23 50.53 52.41 50.55 51.57 49.02 50.11 47.79 42.56 48.09 43.42 39.96 43.29 44.99 45.91 44.86 43.11 42.58 46.67 49.76 47.82 47.58 48.37 50.69 52.19 51.15 51.31 50.43 50.92 51.93 51.82
52.47 52.32 52.55 53.09 53.15 52.68 46.91 41.34 42.75 45.31 37.75 45.60 47.31 46.92 48.32 49.41 44.85 48.91 53.11 46.31 44.51 41.41 44.78 43.69 40.04 44.96 47.53 47.35 45.00 44.08 43.24 43.06 46.46 49.08 47.04 46.99 46.96 50.66 51.43 50.52 50.27 50.87 50.75 50.52 51.25
52.62 52.95 52.64 52.82 52.86 46.94 43.58 44.27 48.12 48.29 38.67 42.48 46.49 46.40 47.00 48.91 44.80 45.89 50.90 48.55 43.49 41.76 42.34 40.54 45.03 48.08 45.90 44.46 43.90 43.50 42.43 43.96 44.12 47.68 48.59 46.16 44.75 46.39 50.68 51.31 51.86 51.55 51.42 51.87 52.30
52.34 52.63 52.71 52.82 45.44 43.04 40.84 47.67 47.82 49.69 32.57 36.59 42.03 45.83 48.05 48.39 44.83 50.36 51.38 49.09 45.67 40.95 43.22 41.60 46.28 46.09 44.09 42.45 44.94 40.65 47.17 47.05 46.68 44.48 38.50 46.07 36.22 42.28 47.03 47.77 49.37 49.96 49.68 50.79 52.31
52.26 52.30 52.37 52.10 43.13 41.34 43.00 45.19 47.33 45.15 17.04 38.64 40.80 50.31 48.25 45.05 48.03 47.94 51.52 48.36 43.61 42.84 43.37 40.58 42.63 42.39 41.46 42.69 46.09 43.70 47.63 46.45 46.48 44.19 41.09 42.83 37.36 40.80 45.53 45.89 48.34 49.34 49.60 50.35 52.37
52.16 52.03 51.97 48.87 47.51 46.18 47.37 45.71 44.05 29.90 20.21 34.81 43.70 42.27 42.20 44.57 46.82 49.25 47.96 49.29 48.58 44.47 43.63 42.60 46.29 44.45 43.49 46.29 47.11 48.70 46.29 45.34 44.98 42.48 36.18 41.78 39.84 41.83 42.47 46.39 47.84 48.75 50.76 50.82 51.05
51.72 51.50 50.63 49.28 41.98 45.82 46.50 43.87 30.78 25.08 37.48 35.78 36.71 38.85 39.00 41.38 43.31 46.07 43.56 41.78 39.61 37.06 37.73 41.99 41.81 44.99 46.28 42.84 45.82 45.91 41.25 33.91 29.61 32.22 33.82 41.78 39.20 41.77 46.20 48.60 49.50 48.18 49.88 50.38 51.72
51.20 50.81 48.82 48.83 47.14 47.18 42.52 38.04 26.46 31.16 32.12 38.80 38.22 38.61 37.41 41.43 42.14 43.51 42.24 39.68 42.93 41.52 38.48 36.42 34.82 42.25 46.00 43.51 41.11 41.48 40.27 36.10 28.92 29.51 34.20 42.42 37.20 42.36 48.39 49.98 50.72 50.94 51.24 51.53 51.06
50.22 44.47 43.48 45.68 48.29 44.41 39.65 28.50 25.71 31.67 36.72 34.94 36.41 34.26 34.39 37.59 37.92 41.61 41.57 40.30 42.68 42.80 37.22 36.64 37.19 45.89 46.12 46.16 44.69 40.95 39.27 43.76 37.61 37.90 34.59 37.45 42.17 47.52 48.63 48.41 50.51 50.70 51.48 50.24 51.04
45.16 40.87 40.84 46.23 46.87 44.11 35.31 29.57 31.54 37.38 37.83 36.80 30.51 34.42 29.66 33.10 34.31 35.51 39.09 44.53 42.78 45.02 43.52 40.02 35.66 44.31 45.41 45.97 45.48 42.83 44.72 38.35 35.72 31.15 28.94 35.29 38.08 39.39 43.60 46.20 49.83 49.60 49.37 49.70 51.18
40.05 36.58 41.95 47.21 46.98 39.85 28.73 29.01 33.35 38.40 39.31 35.36 33.05 31.98 32.70 32.27 34.14 34.43 36.93 43.26 45.10 44.63 45.19 42.13 38.68 40.46 44.19 41.23 40.34 40.29 39.64 40.49 40.03 37.05 32.16 28.87 34.95 43.94 45.73 46.07 49.63 50.06 50.86 50.82 51.89
38.00 31.44 44.14 47.99 36.25 35.61 30.99 32.76 37.42 36.32 39.11 36.93 37.03 35.72 34.34 34.27 32.79 33.87 35.93 40.81 44.17 42.55 40.48 43.60 37.66 35.94 39.38 43.82 45.90 43.43 41.36 41.61 38.65 34.39 36.12 35.51 37.16 46.90 47.54 48.25 51.80 50.64 52.03 51.69 52.94
34.47 34.43 43.93 45.53 27.52 31.66 33.61 34.14 36.17 35.35 35.80 36.08 35.14 37.29 38.48 35.13 30.87 36.59 39.14 43.53 44.27 41.50 40.05 43.22 38.97 33.51 36.70 39.44 44.24 41.35 43.76 42.79 39.79 38.42 36.47 34.80 35.96 48.88 49.72 50.99 52.64 51.13 51.29 51.71 51.76
34.54 29.35 37.49 38.75 39.72 34.12 32.60 32.30 32.23 37.86 35.52 37.32 36.18 37.59 36.16 35.01 36.88 34.68 35.94 41.26 42.71 42.15 46.51 43.18 39.09 38.10 34.45 38.80 42.01 39.83 42.81 45.00 41.00 35.45 36.47 39.27 40.64 45.25 48.70 51.12 51.42 51.95 51.82 51.92 53.08
34.54 30.96 36.24 27.32 29.92 32.45 31.83 32.79 30.92 30.77 35.69 35.90 33.63 35.86 34.38 32.13 34.26 33.88 36.80 37.77 40.34 43.32 40.45 37.24 37.74 40.45 41.74 43.37 44.56 43.84 43.72 45.14 43.54 42.36 39.96 40.98 42.31 45.36 48.21 51.99 52.92 53.03 52.10 52.09 52.61
36.06 33.67 36.71 34.63 33.24 30.84 32.07 30.47 31.38 33.49 34.29 33.44 31.68 35.64 36.24 33.03 34.91 33.59 35.89 35.48 35.21 38.94 36.81 37.11 33.86 41.30 39.51 42.98 43.19 41.94 45.36 46.21 46.03 44.02 43.22 44.15 43.65 48.59 51.78 53.07 51.80 52.44 52.52 52.23 52.97
40.32 39.62 38.45 34.88 31.07 29.19 30.09 33.88 33.89 36.09 36.90 37.69 37.01 34.64 32.86 36.77 40.41 40.89 41.20 39.72 39.15 36.14 34.61 33.82 35.59 36.86 36.62 42.36 41.86 38.21 43.40 45.91 45.82 46.92 45.58 42.13 44.19 47.69 48.12 51.97 52.95 52.18 53.36 53.18 53.57
MSLP
1019.72 1019.60 1019.27 1019.05 1018.92 1018.87 1018.64 1018.49 1018.20 1017.72 1017.33 1017.04 1016.84 1016.67 1016.35 1015.80 1015.02 1014.11 1012.84 1010.47 1010.06 1009.90 1010.23 1010.46 1011.42 1011.04 1011.55 1011.72 1011.67 1012.01 1012.83 1012.07 1010.93 1009.97 1008.27 1006.30 1006.45 1005.59 1005.00 1004.78 1004.64 1004.53 1004.95 1004.45 1005.27
1019.82 1019.45 1019.30 1019.03 1018.72 1018.65 1018.42 1018.08 1017.83 1017.53 1017.28 1017.04 1016.80 1016.29 1016.22 1015.47 1014.51 1012.79 1009.34 1008.99 1008.86 1009.76 1010.21 1010.32 1010.54 1011.09 1011.58 1011.26 1011.43 1011.65 1011.69 1010.43 1008.76 1008.88 1008.12 1007.00 1006.35 1005.72 1005.32 1004.63 1004.46 1004.54 1004.67 1004.71 1005.55
1020.01 1019.73 1019.39 1019.07 1018.89 1018.56 1018.17 1017.76 1017.54 1017.36 1017.23 1016.91 1016.67 1016.35 1015.93 1015.14 1014.05 1009.93 1007.79 1008.00 1008.22 1009.21 1009.51 1009.90 1010.04 1010.70 1011.26 1011.07 1010.51 1010.09 1009.62 1008.75 1008.41 1007.98 1007.49 1006.76 1005.92 1005.43 1005.09 1004.60 1004.15 1004.48 1005.03 1005.13 1005.84
1020.15 1019.73 1019.32 1018.92 1018.43 1018.00 1017.73 1017.64 1017.35 1017.21 1017.06 1016.78 1016.41 1016.07 1015.39 1014.97 1012.30 1007.97 1007.89 1007.58 1007.84 1008.62 1009.54 1009.66 1010.02 1010.60 1010.64 1010.53 1008.73 1009.64 1008.70 1008.25 1007.28 1007.00 1006.80 1006.16 1005.49 1004.93 1004.58 1003.99 1003.48 1003.73 1004.32 1005.21 1005.87
1019.91 1019.58 1019.17 1018.70 1018.22 1017.78 1017.41 1017.13 1017.17 1016.76 1016.37 1016.13 1015.95 1015.65 1015.02 1013.77 1010.32 1007.35 1007.74 1007.88 1007.94 1008.47 1008.87 1009.25 1009.67 1009.78 1009.86 1009.20 1009.42 1008.86 1007.53 1007.14 1006.68 1006.43 1005.96 1005.42 1005.03 1004.54 1003.85 1003.17 1002.88 1003.57 1004.43 1004.76 1005.31
1019.76 1019.35 1018.90 1018.44 1018.06 1017.68 1017.25 1016.80 1016.43 1016.23 1016.17 1016.05 1015.72 1015.45 1015.11 1012.41 1008.88 1007.97 1007.76 1008.01 1007.86 1008.40 1008.29 1008.84 1008.28 1008.40 1009.18 1008.90 1009.02 1007.02 1007.24 1006.82 1006.32 1005.91 1005.47 1004.98 1004.11 1004.06 1003.08 1002.64 1002.86 1003.37 1004.01 1004.21 1004.65
1019.37 1018.96 1018.51 1018.06 1017.64 1017.16 1016.83 1016.51 1016.11 1015.74 1015.60 1015.38 1015.30 1014.91 1013.90 1009.54 1008.12 1007.62 1007.98 1007.52 1007.18 1007.40 1007.53 1007.66 1007.80 1008.37 1008.32 1008.89 1008.00 1007.42 1007.19 1006.50 1005.96 1005.36 1004.61 1004.52 1003.60 1002.97 1002.48 1002.41 1002.64 1003.12 1003.17 1003.54 1003.75
1018.90 1018.49 1018.08 1017.61 1017.07 1016.48 1015.91 1015.37 1014.98 1014.82 1014.52 1014.42 1014.36 1014.10 1011.41 1008.82 1007.97 1007.70 1007.38 1006.87 1007.00 1007.07 1007.05 1006.74 1007.10 1007.76 1008.52 1008.17 1007.77 1007.46 1007.03 1006.16 1005.21 1004.83 1003.85 1004.54 1002.85 1002.18 1001.76 1002.20 1002.47 1002.63 1002.77 1003.06 1003.44
1018.56 1018.00 1017.52 1017.11 1016.68 1016.11 1015.42 1014.54 1013.90 1013.70 1013.88 1014.08 1014.26 1013.78 1010.31 1007.37 1006.87 1005.08 1005.62 1005.83 1005.80 1006.17 1006.62 1006.47 1006.86 1007.69 1008.11 1008.41 1008.43 1007.50 1006.85 1005.87 1004.86 1004.48 1003.77 1003.64 1002.58 1001.54 1001.12 1001.68 1001.82 1001.92 1002.26 1002.65 1002.82
1018.39 1017.87 1017.33 1016.85 1016.44 1015.91 1015.26 1014.36 1012.42 1012.82 1012.96 1013.30 1013.08 1012.92 1008.83 1005.24 1004.07 1003.62 1004.02 1005.11 1005.47 1005.55 1006.09 1006.15 1006.51 1007.16 1007.70 1007.56 1006.68 1006.63 1006.42 1005.40 1004.42 1003.25 1003.66 1003.07 1002.53 1001.38 1000.77 1001.02 1000.91 1001.27 1001.60 1002.03 1002.63
1018.23 1017.68 1017.10 1016.56 1016.17 1015.72 1015.38 1014.42 1012.79 1012.77 1012.69 1010.46 1009.19 1007.22 1004.55 1003.60 1003.38 1003.12 1003.43 1004.64 1005.51 1005.44 1005.51 1005.40 1005.93 1005.38 1005.49 1005.49 1005.74 1006.07 1005.86 1005.09 1003.60 1002.43 1003.73 1002.92 1002.22 1000.84 1000.31 1000.22 1000.27 1000.70 1001.40 1001.63 1002.27
1017.77 1017.28 1016.91 1016.40 1015.86 1015.41 1015.55 1015.12 1013.65 1013.43 1011.63 1009.44 1008.13 1007.53 1005.24 1004.71 1004.65 1002.71 1002.84 1003.83 1004.51 1004.15 1004.77 1004.99 1003.18 1003.88 1004.89 1005.03 1005.19 1005.39 1005.24 1004.64 1003.48 1002.62 1003.66 1002.68 1002.02 1000.78 999.96 999.91 999.91 1000.17 1000.76 1001.45 1002.55
1017.65 1017.02 1016.38 1016.03 1015.56 1015.33 1015.05 1014.05 1012.92 1013.14 1011.86 1007.52 1006.11 1004.80 1005.49 1004.96 1004.24 1001.83 1002.16 1002.43 1002.60 1003.48 1003.33 1002.62 1002.20 1003.52 1004.01 1004.09 1004.35 1004.14 1004.38 1003.93 1003.83 1002.73 1002.93 1003.06 1002.16 1000.98 999.47 999.32 999.59 1000.03 1000.43 1001.35 1002.00
1017.19 1016.80 1016.28 1015.74 1015.66 1015.14 1014.15 1012.93 1012.60 1011.91 1011.06 1005.99 1003.68 1001.51 1003.18 1004.31 1002.12 1001.44 1001.11 1001.36 1001.80 1001.95 1002.85 1002.26 1002.52 1002.56 1002.77 1002.83 1003.38 1003.23 1003.22 1003.38 1003.66 1003.70 1003.52 1002.48 1002.35 1001.35 999.73 999.38 999.41 999.59 1000.17 1000.87 1001.62
1016.86 1016.37 1016.01 1015.78 1015.59 1015.09 1013.30 1012.57 1012.03 1011.77 1009.75 1003.18 1001.35 1000.00 1000.18 1000.30 999.02 999.05 999.80 1000.60 1000.28 1000.76 1002.03 999.93 1000.97 1001.69 1001.72 1001.48 1002.32 1001.85 1002.68 1003.10 1003.16 1003.73 1003.81 1002.51 1002.94 1000.88 999.96 999.50 999.37 999.53 1000.06 1000.77 1001.23
1016.45 1015.96 1015.54 1015.31 1015.32 1014.18 1013.49 1012.74 1012.11 1011.87 1007.80 1002.84 1000.62 1000.74 1000.43 999.79 998.46 997.69 998.13 999.42 999.64 1000.27 1000.13 1000.10 1000.12 1000.57 1000.42 1001.13 1001.52 1001.51 1002.72 1002.98 1003.48 1003.92 1003.85 1002.97 1003.03 1000.47 1000.25 999.23 999.00 999.12 1000.06 1000.80 1001.76
1015.89 1015.49 1015.24 1014.89 1014.34 1013.67 1013.55 1013.00 1012.47 1010.42 1006.40 1003.60 1002.26 1001.53 1000.37 1000.02 999.45 998.19 998.28 998.86 998.39 999.42 999.52 1000.22 999.89 999.85 999.75 1000.29 1000.68 1001.43 1002.61 1003.74 1004.07 1004.04 1002.56 1002.36 1002.18 1000.09 998.86 998.68 998.91 999.32 1000.28 1001.29 1002.17
1015.36 1014.94 1014.29 1013.95 1013.69 1013.85 1014.14 1013.64 1011.74 1008.88 1007.22 1005.10 1004.02 1002.10 1000.63 1000.49 1000.07 999.17 998.68 998.17 998.54 998.10 998.68 999.25 999.02 998.52 998.21 998.59 999.43 1000.30 1001.57 1002.35 1003.23 1003.34 1002.78 1002.04 1000.86 998.88 997.76 997.59 997.95 998.88 1000.02 1001.36 1002.39
1014.81 1014.30 1013.88 1012.84 1013.22 1014.00 1014.38 1013.35 1011.14 1009.34 1008.14 1006.83 1005.32 1003.75 1002.88 1002.28 1001.93 999.70 998.88 997.78 997.09 997.35 997.71 998.29 997.88 996.92 997.06 998.05 998.71 998.87 999.85 1000.95 1002.28 1002.68 1002.36 1001.50 1000.03 998.62 997.75 998.05 998.96 999.69 1000.64 1001.52 1002.33
1014.85 1014.40 1013.36 1012.07 1012.87 1014.01 1014.33 1012.95 1011.40 1010.04 1008.98 1008.12 1007.31 1006.49 1006.03 1004.97 1003.83 1002.29 999.53 997.58 997.71 997.44 997.85 997.73 997.66 996.74 996.49 997.43 997.40 997.48 999.10 1000.48 1001.67 1002.28 1002.18 1001.26 1000.26 999.46 999.00 998.99 999.65 1000.29 1000.73 1001.59 1002.58
1015.08 1014.45 1012.46 1012.18 1013.06 1013.94 1013.81 1013.03 1011.65 1010.52 1009.86 1008.93 1008.26 1007.68 1007.78 1006.80 1005.57 1003.99 1001.49 1000.04 999.27 998.35 997.95 997.71 997.56 996.72 996.32 995.33 995.21 997.33 998.26 999.22 1000.04 1000.58 1001.00 1001.19 999.57 998.34 998.56 998.88 999.45 999.89 1000.26 1001.26 1002.18
1015.16 1014.71 1012.97 1012.46 1013.74 1014.07 1013.63 1012.81 1011.91 1010.44 1009.81 1009.24 1008.48 1008.09 1007.89 1007.88 1006.20 1005.33 1003.22 1001.34 1001.25 1000.96 998.80 997.14 997.98 997.75 995.16 994.72 995.05 996.21 996.72 997.79 998.84 1000.02 999.97 1000.09 998.72 997.41 997.42 998.01 998.53 999.43 1000.09 1000.99 1001.83
1015.62 1014.74 1013.08 1012.98 1013.94 1013.89 1013.30 1012.33 1011.50 1010.33 1009.73 1008.84 1008.45 1008.21 1007.68 1007.33 1006.93 1005.53 1003.98 1002.05 1002.16 1002.01 1000.58 998.61 997.48 997.73 995.68 995.22 994.70 994.46 995.15 996.13 997.10 998.47 998.99 999.42 998.24 997.00 997.08 997.61 998.22 999.04 1000.07 1000.89 1001.68
1016.12 1015.45 1014.26 1013.89 1013.86 1013.97 1013.29 1012.20 1011.23 1010.14 1009.47 1008.30 1008.14 1007.90 1007.45 1006.69 1006.50 1005.68 1005.06 1003.52 1003.08 1002.38 1001.46 1000.33 997.55 996.19 994.70 993.43 993.40 993.62 993.99 994.73 995.64 996.99 997.73 997.62 997.59 997.27 997.68 997.59 998.30 998.87 999.54 1000.28 1001.02
1016.25 1015.76 1014.84 1014.73 1014.22 1013.89 1013.30 1012.09 1011.25 1010.41 1009.26 1008.46 1007.98 1007.57 1007.22 1006.71 1006.17 1005.83 1005.49 1004.93 1003.81 1002.26 1001.53 1000.66 997.72 995.89 994.27 993.74 993.03 992.59 992.56 993.25 993.90 994.74 995.80 996.47 996.80 996.68 997.14 997.00 997.34 998.05 999.26 1000.06 1000.79
1016.57 1016.16 1015.35 1014.66 1014.12 1013.68 1012.84 1012.01 1011.25 1010.05 1009.43 1008.07 1007.53 1006.98 1006.70 1006.67 1006.38 1006.13 1005.99 1006.32 1005.13 1002.63 1002.44 1001.29 998.50 995.91 994.76 993.58 992.84 992.63 991.88 992.03 992.72 993.59 994.31 994.88 995.56 995.03 995.40 996.26 997.38 997.81 998.64 999.35 999.93
1016.17 1015.84 1015.74 1014.74 1014.14 1013.70 1012.72 1011.99 1011.17 1010.34 1008.87 1008.01 1007.73 1007.12 1006.45 1005.68 1005.32 1005.35 1005.71 1005.66 1005.38 1004.45 1003.63 1002.89 1000.35 997.28 994.80 993.47 992.85 992.16 990.94 990.93 991.41 992.07 992.88 994.03 993.90 994.30 995.42 996.01 996.33 997.17 997.60 997.99 998.74
Wind_Speed
16 16 15 15 12 11 12 13 14 14 14 16 16 17 17 16 17 2 12 12 10 13 2 8 6 5 4 5 5 5 2 8 8 7 11 16 3 7 5 3 4 5 7 9 14
16 17 16 15 14 13 13 13 13 14 15 14 16 17 17 16 3 10 11 17 19 11 7 10 9 7 4 5 5 7 6 13 13 8 10 16 7 12 5 7 5 3 4 8 16
15 16 16 16 16 15 14 14 15 15 14 14 15 15 16 13 5 12 9 26 19 14 11 6 4 8 7 5 8 8 17 19 19 16 15 18 19 10 6 6 9 5 7 11 9
14 16 16 16 17 17 15 15 16 16 15 14 14 15 16 3 9 3 1 2 16 15 11 8 6 7 7 14 22 6 14 21 23 20 18 20 20 19 8 10 9 7 17 10 10
17 17 17 17 17 17 17 15 15 15 15 15 14 14 7 5 12 13 10 5 6 13 15 12 10 12 15 10 8 13 25 20 19 17 21 21 19 19 10 11 9 3 13 17 15
16 17 18 18 18 17 16 16 14 13 13 14 13 12 3 17 8 13 20 11 7 6 13 11 11 11 5 17 15 10 16 20 18 20 22 23 23 8 13 9 10 10 16 14 15
15 16 17 18 19 18 17 16 16 15 16 15 13 8 10 20 6 6 7 5 5 10 9 18 18 4 7 9 13 13 22 19 19 14 18 15 19 14 12 10 10 12 11 14 19
16 15 17 18 19 20 19 20 19 19 19 17 13 8 12 9 17 22 26 23 10 10 13 12 14 12 5 5 8 6 4 9 11 15 21 7 24 17 13 10 12 12 10 10 11
17 16 17 18 19 20 20 22 25 23 21 16 10 6 12 8 11 21 19 13 18 12 13 16 8 9 3 16 11 5 13 17 14 11 12 9 22 19 14 14 16 12 10 11 12
18 18 17 17 18 18 18 23 28 20 10 8 9 2 8 10 7 5 13 18 11 6 7 12 6 8 6 6 14 12 11 5 17 19 8 13 17 20 20 17 19 12 10 10 7
19 18 18 18 17 15 10 7 5 3 5 11 12 10 3 16 10 7 8 16 10 6 10 15 12 17 26 22 12 8 7 9 20 24 5 12 15 23 15 10 14 10 10 10 9
22 21 19 17 16 16 4 2 5 0 12 17 26 25 27 12 8 10 12 11 15 18 15 7 25 24 16 15 13 12 14 18 21 23 6 17 19 22 12 7 9 12 11 7 7
18 21 21 18 12 8 4 7 4 5 8 12 20 20 20 10 12 18 14 10 9 17 21 23 7 18 17 15 13 16 18 17 18 20 16 11 16 10 6 3 3 6 4 8 17
19 18 18 17 6 4 6 5 8 4 5 9 11 11 16 9 15 24 7 9 9 24 22 19 21 16 21 18 17 19 17 19 16 12 9 6 8 6 6 5 5 7 7 10 14
18 19 16 9 5 4 7 12 15 2 5 5 5 6 10 24 13 18 22 13 20 15 19 17 21 24 21 26 21 19 17 18 20 14 8 22 4 9 6 6 9 10 5 10 17
17 17 16 4 4 10 11 14 3 3 11 8 7 5 4 23 14 5 22 9 10 17 18 26 5 21 23 18 22 22 11 12 12 9 11 16 7 14 5 8 6 2 7 9 9
17 16 11 5 6 3 8 6 1 7 8 1 13 22 18 14 20 8 22 25 14 17 24 14 25 16 15 21 20 14 9 4 3 4 12 10 7 13 7 8 8 8 8 8 9
18 15 8 7 4 4 3 1 9 8 15 20 22 22 6 13 7 23 9 23 23 16 13 17 13 27 21 20 18 20 14 9 8 6 4 6 6 12 9 4 7 7 10 11 10
17 3 3 5 8 3 1 7 5 3 10 18 20 10 13 23 14 5 22 24 22 21 12 16 17 8 21 19 20 14 16 20 4 4 2 5 7 9 5 6 6 10 12 11 11
4 3 4 4 7 3 1 6 4 11 18 17 11 10 19 21 14 17 3 14 17 24 8 5 5 17 16 15 24 26 6 7 2 10 7 4 4 6 1 7 6 8 10 8 8
2 4 5 5 5 1 3 5 7 12 14 9 13 15 13 16 11 8 9 7 13 12 21 9 3 5 16 23 27 11 10 6 5 7 10 3 9 9 13 10 16 13 13 14 14
2 4 1 4 2 1 4 3 8 15 15 15 9 12 10 6 11 8 9 11 22 21 10 24 5 11 22 4 17 14 14 11 9 5 2 7 12 3 12 13 16 12 12 10 12
3 4 4 4 2 2 5 7 9 17 15 6 7 7 9 8 5 7 12 16 17 20 10 7 17 9 9 2 8 17 15 9 6 5 9 8 9 3 5 12 13 14 10 11 11
2 4 3 5 1 3 3 7 5 6 10 10 3 4 8 11 10 9 14 13 26 20 18 10 7 29 16 11 6 6 18 14 9 6 7 9 5 3 2 13 9 11 13 15 16
1 4 2 4 3 6 4 5 11 8 7 8 3 5 7 5 9 15 13 20 19 11 15 8 14 21 30 18 5 8 18 19 17 13 12 8 11 9 11 16 18 15 12 14 15
2 2 4 6 6 4 4 4 15 12 7 9 7 10 12 7 12 12 9 12 12 10 15 10 8 16 23 29 27 18 15 22 17 9 8 12 9 8 17 8 9 15 17 17 18
3 2 3 5 4 3 3 8 10 13 11 7 12 5 10 12 9 12 10 11 19 18 17 5 5 4 22 19 19 21 21 19 19 15 14 12 8 8 8 14 17 15 19 20 19
Wind_Direction
333 331 331 330 330 330 332 331 330 333 334 330 329 327 328 330 311 239 244 230 199 171 152 130 208 207 121 213 189 141 136 254 237 226 252 285 6 296 270 262 252 220 154 210 148
331 324 319 316 316 316 315 321 322 324 324 323 323 326 324 333 303 259 236 225 217 175 187 181 187 175 216 210 210 164 186 236 234 254 276 288 281 292 305 318 291 304 7 112 140
328 323 319 312 308 304 303 306 312 317 317 319 318 321 321 328 325 252 248 226 224 183 203 215 169 161 213 173 218 203 226 242 267 261 264 270 285 279 278 293 267 238 194 158 152
325 320 318 317 315 309 301 294 300 305 310 313 318 321 317 237 232 242 30 296 233 176 195 211 208 193 200 220 234 269 242 242 253 263 268 267 277 274 235 245 251 276 187 163 165
329 326 321 318 317 315 306 289 287 295 302 309 317 323 345 215 226 254 288 52 82 166 203 203 188 214 218 240 243 233 241 246 254 263 265 269 262 259 247 262 271 158 169 183 186
324 319 320 321 315 311 308 311 290 285 285 292 302 316 209 246 243 249 266 281 242 178 208 191 216 206 299 234 234 241 247 253 259 262 266 264 269 244 251 249 269 174 201 192 185
316 317 317 312 315 311 306 301 296 289 291 294 291 285 241 244 245 262 315 234 217 196 214 213 221 184 202 271 271 250 257 263 260 250 257 269 269 248 252 253 250 209 194 198 202
310 309 311 314 311 315 313 307 298 294 293 291 290 280 255 256 235 253 263 268 254 244 239 220 209 219 219 302 311 302 268 252 244 259 260 197 269 274 257 234 236 224 227 206 204
323 312 304 308 315 312 312 307 297 290 282 279 273 210 266 278 218 232 212 220 228 224 227 233 136 197 183 227 267 230 257 260 277 243 260 218 267 269 273 228 233 227 225 227 222
321 318 315 301 307 313 307 305 286 282 278 235 231 297 259 235 235 236 201 218 222 196 214 209 190 181 227 151 216 216 237 225 255 256 257 267 265 270 264 240 225 216 228 232 202
321 317 314 313 304 310 328 337 3 66 244 212 198 218 299 231 332 239 163 186 219 220 199 198 206 212 216 218 226 238 236 247 261 268 279 268 271 271 259 243 220 218 232 234 198
321 317 318 313 303 305 315 240 222 328 289 257 258 239 266 308 310 269 161 166 178 212 201 198 221 217 222 224 217 230 241 248 272 269 259 273 281 286 265 227 212 213 233 216 137
317 314 315 316 309 314 216 238 261 308 266 266 231 231 226 243 234 266 194 185 191 196 207 210 229 202 209 220 225 227 230 244 244 278 277 277 279 266 296 239 241 276 272 144 166
316 312 309 318 322 285 256 305 307 308 276 268 211 239 189 215 255 219 222 186 207 205 208 234 220 202 211 221 214 235 227 241 251 255 257 138 280 276 242 267 256 272 215 182 172
312 312 307 300 284 305 278 324 319 165 299 229 213 184 185 184 128 208 199 211 203 179 186 209 194 216 224 217 216 229 223 235 246 247 262 280 294 267 274 275 271 290 210 174 175
309 310 312 276 242 245 297 298 325 85 251 301 93 343 189 209 218 131 184 186 195 204 212 217 191 209 221 221 219 233 241 240 258 243 253 243 212 262 221 226 254 230 193 177 153
312 309 301 260 237 301 331 317 226 215 310 198 344 340 307 201 220 230 185 188 191 185 215 210 222 237 202 216 230 215 201 252 300 196 239 213 191 240 226 228 222 196 195 157 146
307 303 246 225 228 269 339 244 237 239 263 313 347 327 324 25 273 231 191 196 208 200 177 208 223 210 215 211 212 220 210 197 183 218 234 208 227 258 223 235 206 151 153 139 139
310 276 250 232 207 114 197 224 234 319 306 348 345 334 347 359 341 240 222 211 202 203 183 193 227 243 205 210 205 221 210 223 211 319 121 211 283 319 263 138 131 131 145 149 153
306 296 271 208 133 103 149 253 299 336 324 327 340 350 342 337 335 350 244 227 225 211 195 232 217 232 205 196 231 219 138 227 305 202 214 267 243 228 167 155 151 157 157 148 138
359 334 261 117 89 111 223 244 304 284 314 330 326 315 329 322 318 311 292 29 11 236 218 221 123 304 206 203 208 198 197 197 174 163 187 199 262 195 200 181 172 174 167 161 164
340 327 327 51 75 151 241 215 279 282 300 290 276 306 316 307 296 292 269 286 359 348 266 211 167 238 240 293 201 209 202 179 210 233 164 154 259 219 212 172 168 172 170 169 158
322 259 329 96 180 235 250 261 283 277 275 271 296 298 288 275 274 300 303 332 328 344 352 256 217 252 324 232 241 203 200 176 141 120 188 156 259 359 128 150 173 157 165 157 152
10 326 340 6 77 290 262 275 269 296 309 288 247 287 290 261 247 270 297 313 337 315 315 306 227 208 219 220 164 202 200 187 147 145 163 196 198 229 207 154 171 169 161 164 165
16 272 297 310 313 291 282 269 288 292 251 277 241 220 270 291 283 263 297 318 317 293 350 4 222 205 222 235 249 219 212 192 187 181 171 201 191 218 191 176 181 171 158 157 164
313 330 329 287 274 294 287 317 300 308 271 299 234 267 289 258 280 281 277 312 292 308 350 335 292 203 221 226 238 249 229 196 192 177 140 178 208 201 190 170 143 170 164 171 176
287 316 300 287 303 334 253 325 296 306 272 274 305 287 282 263 225 227 214 242 258 275 296 271 325 296 223 218 231 236 234 208 183 177 150 185 201 168 148 174 178 173 177 179 179